Regional Weather Roundup
Issued by NWS

Home | Current Version | Previous Version | Graphics & Text | Print | Product List | Glossary On
Versions: 1 2 3 4 5 6 7 8 9 10 11 12 13 14 15 16 17 18 19 20 21 22 23 24 25 26 27 28 29 30 31 32 33 34 35 36 37 38 39 40 41 42 43 44 45 46 47 48 49 50
000
ASUS43 KBIS 220602
RWRND

NORTH DAKOTA REGIONAL WEATHER ROUNDUP
NATIONAL WEATHER SERVICE BISMARCK ND
1200 AM CST WED FEB 22 2017

NOTE: "FAIR" INDICATES FEW OR NO CLOUDS BELOW 12,000 FEET WITH NO
SIGNIFICANT WEATHER AND/OR OBSTRUCTIONS TO VISIBILITY.


NDZ001>003-009>011-017-220700-
NORTHWEST NORTH DAKOTA

CITY           SKY/WX    TMP DP  RH WIND       PRES   REMARKS
WILLISTON      CLOUDY    34  32  92 N13       29.70R
6HR MIN TEMP:  34; 6HR MAX TEMP:  40; 6HR PCP:  0.02;

MINOT          CLOUDY    34  32  92 NW7       29.67S FOG
MINOT AFB      LGT RAIN  33  32  98 N10       29.66F FOG
$$

NDZ018>021-031>035-040>046-220700-
SOUTHWEST NORTH DAKOTA

CITY           SKY/WX    TMP DP  RH WIND       PRES   REMARKS
BISMARCK       FAIR      35  33  92 CALM      29.66F
6HR MIN TEMP:  34; 6HR MAX TEMP:  47; 6HR PCP:  0.04;

DICKINSON      FAIR      35  32  88 E7        29.61F
GARRISON         N/A     34  32  92 N8        29.65F
6HR MIN TEMP:  34; 6HR MAX TEMP:  42; 6HR PCP:  0.01;

HETTINGER ARPT CLOUDY    35  33  92 CALM      29.63F
$$

NDZ004>008-012>016-024-026-027-054-220700-
NORTHEAST NORTH DAKOTA

CITY           SKY/WX    TMP DP  RH WIND       PRES   REMARKS
GRAND FORKS    CLOUDY    33  29  85 N3        29.66F FOG
GRND FRKS AFB  CLOUDY    32  31  99 N3        29.66F FOG
DEVILS LAKE    LGT RAIN  34  33  96 W7        29.67
$$

NDZ022-023-025-028>030-036>039-047>053-220700-
SOUTHEAST NORTH DAKOTA

CITY           SKY/WX    TMP DP  RH WIND       PRES   REMARKS
FARGO          CLOUDY    35  34  96 E3        29.64F
6HR MIN TEMP:  35; 6HR MAX TEMP:  44; 6HR PCP: TRACE;

JAMESTOWN      FAIR      34  33  96 CALM      29.64F
$$




USA.gov is the U.S. government's official web portal to all federal, state and local government web resources and services.